Flag for Australia Weather past 2 weeks in Darwin, Northern Territory, Australia

Now
84 °F

Passing clouds.


Feels Like: 96 °F
Forecast: 79 / 90 °F
Wind: 7 mph from West

Location: Darwin Airport

Current Time: Mar 5, 2015 at 10:14:00 PM

Latest Report: Mar 5, 2015 at 9:30 PM


Visibility: N/A

Pressure: 29.77 "Hg

Humidity: 84%

Dew point: 79 °F

Location of DarwinLocation

Historic Weather in Darwin — Graph

°F

Darwin temperature yesterday

Maximum temperature yesterday: 90 °F (at 1:00 PM)
Minimum temperature yesterday: 77 °F (at 4:30 AM)
Average temperature yesterday: 82 °F

Past Weeks' High & Low Weather Summary

 TemperatureHumidityPressure
High93 °F (Feb 19, 1:30 PM)100% (Feb 20, 5:30 AM)29.86 "Hg (Feb 20, 5:30 AM)
Low72 °F (Feb 20, 5:30 AM)59% (Feb 19, 12:30 PM)29.59 "Hg (Feb 19, 3:00 PM)
Average82 °F84%29.73 "Hg
* Reported Feb 18 9:30 PM — Mar 5 9:30 PM, Darwin, Weather by CustomWeather, © 2015

Note: Actual official high and low records may vary slightly from our data, if they occured in-between our weather recording intervals... More about our weather records

Advertising

Darwin weather history for previous 24 hours

 ConditionsComfort  
Time TempWeatherWind HumidityBarometerVisibility
9:30 PM
Thu, Mar 5
84 °FPassing clouds.7 mph84%29.77 "HgN/A
8:30 PM84 °FPassing clouds.9 mph84%29.77 "HgN/A
8:00 PM84 °FPartly cloudy.10 mph84%29.74 "HgN/A
7:30 PM86 °FPartly sunny.8 mph75%29.74 "HgN/A
7:00 PM86 °FBroken clouds.9 mph75%29.71 "HgN/A
6:30 PM86 °FScattered showers. Partly sunny.12 mph75%29.71 "HgN/A
6:00 PM88 °FPartly sunny.14 mph70%29.68 "HgN/A
5:30 PM88 °FScattered clouds.15 mph70%29.68 "HgN/A
5:00 PM88 °FScattered clouds.13 mph70%29.68 "HgN/A
4:30 PM90 °FScattered clouds.15 mph67%29.68 "HgN/A
4:00 PM90 °FPartly sunny.14 mph67%29.68 "HgN/A
3:30 PM90 °FPartly sunny.14 mph67%29.68 "HgN/A
3:00 PM90 °FPartly sunny.12 mph67%29.71 "HgN/A
2:30 PM90 °FScattered clouds.14 mph67%29.71 "HgN/A
1:30 PM90 °FScattered clouds.12 mph67%29.74 "HgN/A
1:00 PM90 °FScattered clouds.9 mph67%29.74 "HgN/A
12:30 PM90 °FScattered clouds.9 mph63%29.77 "HgN/A
11:30 AM90 °FScattered clouds.8 mph63%29.77 "HgN/A
11:00 AM88 °FPassing clouds.8 mph66%29.77 "HgN/A
10:30 AM86 °FPassing clouds.7 mph75%29.77 "HgN/A
10:00 AM84 °FScattered clouds.8 mph79%29.80 "HgN/A
9:30 AM86 °FPassing clouds.7 mph75%29.80 "HgN/A
9:00 AM84 °FPassing clouds.3 mph84%29.80 "HgN/A
8:30 AM82 °FPassing clouds.7 mph84%29.80 "HgN/A
8:00 AM81 °FScattered clouds.6 mph84%29.80 "HgN/A
7:30 AM79 °FScattered clouds.6 mph89%29.80 "HgN/A
6:30 AM77 °FPassing clouds.6 mph89%29.77 "HgN/A
6:00 AM77 °FPartly cloudy.7 mph89%29.77 "HgN/A
5:30 AM77 °FPassing clouds.6 mph89%29.77 "HgN/A
5:00 AM77 °FPassing clouds.5 mph89%29.77 "HgN/A
4:30 AM77 °FPartly cloudy.5 mph89%29.77 "HgN/A
4:00 AM77 °FPartly cloudy.7 mph89%29.77 "HgN/A
3:30 AM77 °FPassing clouds.3 mph89%29.74 "HgN/A
3:00 AM77 °FPassing clouds.2 mph89%29.74 "HgN/A
2:30 AM77 °FPassing clouds.6 mph89%29.74 "HgN/A
2:00 AM77 °FPassing clouds.6 mph89%29.77 "HgN/A
1:30 AM77 °FPassing clouds.5 mph94%29.77 "HgN/A
1:00 AM77 °FPassing clouds.8 mph94%29.80 "HgN/A
12:30 AM79 °FPartly cloudy.6 mph89%29.80 "HgN/A
12:00 AM79 °FPassing clouds.3 mph94%29.80 "HgN/A
11:30 PM
Wed, Mar 4
79 °FPassing clouds.3 mph89%29.80 "HgN/A
11:00 PM79 °FPassing clouds.5 mph89%29.80 "HgN/A
10:30 PM79 °FPassing clouds.3 mph89%29.80 "HgN/A
10:00 PM79 °FPassing clouds.5 mph84%29.80 "HgN/A
Weather by CustomWeather, © 2015

See weather overviewHow to use our weather pages